Location: Chircca
(13.7944°S, 72.0608°W)
Time: 07:02:52
(UTC+00:00)

Cosmos 1536 Rocket - Pass Details

Date: 14 July 2020
Orbit: 604 x 633 km, 82.5° (Epoch: 07 August)

Event Time Altitude Azimuth Distance (km) Brightness Sun altitude
Rises 09:41:58 0° 360° (N) 2,852 7.2 -21.6°
Reaches altitude 10° 09:44:11 10° 2° (N) 1,951 6.3 -21.1°
Maximum altitude 09:48:29 74° 86° (E) 634 3.7 -20.1°
Drops below altitude 10° 09:52:48 10° 171° (S) 1,962 6.0 -19.1°
Sets 09:55:02 0° 173° (S) 2,870 6.9 -18.6°
